TimeAKST,TemperatureF,Dew PointF,Humidity,Sea Level PressureIn,VisibilityMPH,Wind Direction,Wind SpeedMPH,Gust SpeedMPH,PrecipitationIn,Events,Conditions,WindDirDegrees,DateUTC
12:53 AM,30.9,28.9,92,29.85,10.0,Calm,Calm,-,0.00,,Overcast,0,2013-02-19 09:53:00
1:53 AM,32.0,28.9,88,29.85,2.5,Calm,Calm,-,0.00,Snow,Light Snow,0,2013-02-19 10:53:00
1:59 AM,30.2,28.4,93,29.86,1.8,Calm,Calm,-,0.00,Snow,Light Snow,0,2013-02-19 10:59:00
2:15 AM,30.2,28.4,93,29.86,3.0,Calm,Calm,-,0.00,Snow,Light Snow,0,2013-02-19 11:15:00
3:14 AM,30.2,28.4,93,29.84,10.0,Calm,Calm,-,0.00,,Overcast,0,2013-02-19 12:14:00
3:53 AM,30.9,28.9,92,29.83,10.0,Calm,Calm,-,0.00,,Overcast,0,2013-02-19 12:53:00
4:35 AM,32.0,30.2,93,29.83,10.0,Calm,Calm,-,N/A,,Overcast,0,2013-02-19 13:35:00
4:53 AM,32.0,28.9,88,29.84,10.0,Calm,Calm,-,N/A,,Overcast,0,2013-02-19 13:53:00
5:53 AM,32.0,28.9,88,29.84,4.0,Calm,Calm,-,0.00,Snow,Light Snow,0,2013-02-19 14:53:00
6:04 AM,30.2,28.4,93,29.85,1.8,Calm,Calm,-,0.00,Snow,Light Snow,0,2013-02-19 15:04:00
6:13 AM,32.0,28.4,87,29.85,3.0,Calm,Calm,-,0.00,Snow,Light Snow,0,2013-02-19 15:13:00
6:36 AM,30.2,30.2,100,29.85,1.8,Calm,Calm,-,0.01,Snow,Light Snow,0,2013-02-19 15:36:00
6:45 AM,30.2,28.4,93,29.83,1.5,Calm,Calm,-,0.01,Snow,Light Snow,0,2013-02-19 15:45:00
6:53 AM,30.9,28.9,92,29.84,2.0,Calm,Calm,-,0.02,Snow,Light Snow,0,2013-02-19 15:53:00
7:10 AM,30.2,30.2,100,29.83,1.5,Calm,Calm,-,0.00,Snow,Light Snow,0,2013-02-19 16:10:00
7:13 AM,30.2,28.4,93,29.83,2.0,Calm,Calm,-,0.00,Snow,Light Snow,0,2013-02-19 16:13:00
7:25 AM,30.2,28.4,93,29.83,1.5,Calm,Calm,-,0.01,Snow,Light Snow,0,2013-02-19 16:25:00
7:42 AM,30.2,30.2,100,29.82,3.0,Calm,Calm,-,0.01,Snow,Light Snow,0,2013-02-19 16:42:00
7:51 AM,32.0,30.2,93,29.82,3.0,Calm,Calm,-,0.01,Snow,Light Snow,0,2013-02-19 16:51:00
7:53 AM,32.0,30.0,92,29.83,3.0,Calm,Calm,-,0.02,Snow,Light Snow,0,2013-02-19 16:53:00
7:57 AM,32.0,30.2,93,29.82,1.8,Calm,Calm,-,0.00,Snow,Light Snow,0,2013-02-19 16:57:00
8:05 AM,32.0,30.2,93,29.82,1.0,Calm,Calm,-,0.00,Snow,Light Snow,0,2013-02-19 17:05:00
8:18 AM,32.0,30.2,93,29.81,1.8,Calm,Calm,-,0.00,Snow,Light Snow,0,2013-02-19 17:18:00
8:26 AM,32.0,30.2,93,29.81,3.0,Calm,Calm,-,0.00,Snow,Light Snow,0,2013-02-19 17:26:00
8:53 AM,32.0,30.0,92,29.80,4.0,NNE,3.5,-,0.01,Snow,Light Snow,30,2013-02-19 17:53:00
9:09 AM,32.0,30.2,93,29.80,1.8,Calm,Calm,-,0.00,Snow,Light Snow,0,2013-02-19 18:09:00
9:23 AM,32.0,30.2,93,29.80,2.5,Calm,Calm,-,0.01,Snow,Light Snow,0,2013-02-19 18:23:00
9:27 AM,32.0,30.2,93,29.80,3.0,Calm,Calm,-,0.01,Snow,Light Snow,0,2013-02-19 18:27:00
9:38 AM,33.8,30.2,87,29.80,2.5,Calm,Calm,-,0.01,Snow,Light Snow,0,2013-02-19 18:38:00
9:46 AM,32.0,32.0,100,29.79,6.0,Calm,Calm,-,0.01,Snow,Light Snow,0,2013-02-19 18:46:00
9:53 AM,33.1,32.0,96,29.79,7.0,Calm,Calm,-,0.01,Snow,Light Snow,0,2013-02-19 18:53:00
10:00 AM,33.8,30.2,87,29.79,8.0,Calm,Calm,-,0.00,,Overcast,0,2013-02-19 19:00:00
10:09 AM,33.8,30.2,87,29.78,10.0,NE,3.5,-,0.00,,Overcast,40,2013-02-19 19:09:00
10:16 AM,33.8,30.2,87,29.78,10.0,Calm,Calm,-,0.00,,Overcast,0,2013-02-19 19:16:00
10:53 AM,35.1,32.0,89,29.78,10.0,Calm,Calm,-,0.00,,Overcast,0,2013-02-19 19:53:00
11:29 AM,37.4,32.0,81,29.76,10.0,SSW,21.9,28.8,N/A,,Overcast,210,2013-02-19 20:29:00
11:44 AM,37.4,32.0,81,29.75,10.0,SSW,18.4,26.5,N/A,,Overcast,200,2013-02-19 20:44:00
11:53 AM,37.9,32.0,79,29.75,10.0,SSW,18.4,26.5,N/A,,Overcast,200,2013-02-19 20:53:00
12:53 PM,37.9,32.0,79,29.74,10.0,SSW,20.7,29.9,N/A,,Overcast,200,2013-02-19 21:53:00
1:53 PM,39.0,32.0,76,29.72,10.0,SSW,20.7,28.8,N/A,,Overcast,200,2013-02-19 22:53:00
3:53 PM,37.9,32.0,79,29.69,10.0,SSW,21.9,34.5,N/A,,Overcast,210,2013-02-20 00:53:00
4:53 PM,39.0,32.0,76,29.67,10.0,SSW,20.7,29.9,N/A,,Overcast,200,2013-02-20 01:53:00
5:53 PM,39.0,32.0,76,29.65,10.0,SSW,17.3,26.5,N/A,,Partly Cloudy,200,2013-02-20 02:53:00
6:53 PM,37.9,32.0,79,29.62,10.0,SSW,19.6,32.2,N/A,,Overcast,200,2013-02-20 03:53:00
7:53 PM,39.0,32.0,76,29.60,10.0,SSW,17.3,26.5,N/A,,Mostly Cloudy,200,2013-02-20 04:53:00
8:53 PM,39.0,30.9,73,29.58,10.0,SSW,18.4,26.5,N/A,,Mostly Cloudy,200,2013-02-20 05:53:00
9:53 PM,39.0,30.9,73,29.57,10.0,SSW,10.4,21.9,N/A,,Overcast,200,2013-02-20 06:53:00
10:53 PM,37.9,32.0,79,29.55,10.0,SSW,19.6,32.2,0.00,Rain,Light Rain,200,2013-02-20 07:53:00
11:53 PM,37.9,32.0,79,29.52,10.0,SSW,20.7,26.5,0.00,,Overcast,210,2013-02-20 08:53:00